TimeEDT,TemperatureF,Dew PointF,Humidity,Sea Level PressureIn,VisibilityMPH,Wind Direction,Wind SpeedMPH,Gust SpeedMPH,PrecipitationIn,Events,Conditions,WindDirDegrees,DateUTC
12:53 AM,66.0,46.0,48,30.07,10.0,Variable,3.5,-,N/A,,Clear,0,2011-10-11 04:53:00
1:53 AM,66.0,46.0,48,30.06,10.0,Calm,Calm,-,N/A,,Mostly Cloudy,0,2011-10-11 05:53:00
2:53 AM,64.0,46.0,52,30.05,10.0,Calm,Calm,-,N/A,,Mostly Cloudy,0,2011-10-11 06:53:00
3:53 AM,64.0,46.0,52,30.04,10.0,Calm,Calm,-,N/A,,Mostly Cloudy,0,2011-10-11 07:53:00
4:53 AM,63.0,46.9,56,30.05,10.0,Calm,Calm,-,N/A,,Mostly Cloudy,0,2011-10-11 08:53:00
5:53 AM,63.0,46.9,56,30.05,10.0,Calm,Calm,-,N/A,,Overcast,0,2011-10-11 09:53:00
6:53 AM,62.1,46.9,58,30.05,10.0,Calm,Calm,-,N/A,,Partly Cloudy,0,2011-10-11 10:53:00
7:53 AM,62.6,46.4,55,30.09,10.0,Calm,Calm,-,N/A,,Overcast,0,2011-10-11 11:53:00
8:53 AM,62.1,48.0,60,30.07,10.0,Calm,Calm,-,0.00,Rain,Light Rain,0,2011-10-11 12:53:00
10:53 AM,63.0,50.0,63,30.07,10.0,Calm,Calm,-,0.00,,Overcast,0,2011-10-11 14:53:00
11:53 AM,64.9,52.0,63,30.04,10.0,Calm,Calm,-,0.00,,Overcast,0,2011-10-11 15:53:00
12:53 PM,66.9,52.0,59,30.02,10.0,Calm,Calm,-,N/A,,Mostly Cloudy,0,2011-10-11 16:53:00
1:53 PM,69.1,53.1,57,30.00,10.0,Calm,Calm,-,N/A,,Scattered Clouds,0,2011-10-11 17:53:00
2:53 PM,71.6,51.8,50,30.01,10.0,Calm,Calm,-,N/A,,Mostly Cloudy,0,2011-10-11 18:53:00
3:53 PM,69.8,51.8,53,30.00,10.0,ESE,3.5,-,N/A,,Overcast,120,2011-10-11 19:53:00
4:53 PM,69.1,52.0,54,29.96,10.0,Calm,Calm,-,N/A,,Overcast,0,2011-10-11 20:53:00
5:53 PM,68.0,55.0,63,29.96,10.0,Calm,Calm,-,N/A,,Overcast,0,2011-10-11 21:53:00
6:53 PM,64.9,55.0,70,29.95,10.0,Calm,Calm,-,0.00,Rain,Light Rain,0,2011-10-11 22:53:00
7:53 PM,62.1,55.0,78,29.96,10.0,SE,4.6,-,0.01,Rain,Light Rain,140,2011-10-11 23:53:00
8:53 PM,60.1,55.9,86,29.97,9.0,Calm,Calm,-,0.03,Rain,Light Rain,0,2011-10-12 00:53:00
9:53 PM,59.0,55.0,87,29.98,10.0,Variable,3.5,-,0.04,Rain,Light Rain,0,2011-10-12 01:53:00
10:53 PM,57.0,55.0,93,29.98,8.0,Variable,3.5,-,0.03,Rain,Light Rain,0,2011-10-12 02:53:00
11:03 PM,57.2,55.4,94,30.00,7.0,Calm,Calm,-,0.01,Rain,Light Rain,0,2011-10-12 03:03:00
11:53 PM,55.9,53.1,90,29.96,10.0,Variable,4.6,-,0.03,Rain,Light Rain,0,2011-10-12 03:53:00